Skip Page Navigation
NASA JPL Caltech
NASA Logo - Jet Propulsion Laboratory + View the NASA Portal
+ Center for Near-Earth Object Studies
JPL Home Earth Solar System Stars & Galaxies Technology
JPL Solar System Dynamics
BODIES ORBITS EPHEMERIDES TOOLS PHYSICAL DATA DISCOVERY FAQ SITE MAP
IMPORTANT: The SSD Announcement email list is now available. Major changes are coming in the near future, including possible hostname and/or URL changes. To be notified of such changes, subscribe to this email list.

Please visit this page for more details.


JPL Small-Body Database Browser
Search: [ help ]  
413762 (2006 DK166)
Classification: Main-belt Asteroid          SPK-ID: 2413762
Ephemeris | Orbit Diagram | Orbital Elements | Mission Design | Physical Parameters | Discovery Circumstances ]

[ show orbit diagram ]
Orbital Elements at Epoch 2458600.5 (2019-Apr-27.0) TDB
Reference: JPL 12 (heliocentric ecliptic J2000)
 Element Value Uncertainty (1-sigma)   Units 
e .06848258628711595 1.2824e-07  
a 3.090988445621035 4.9482e-08 au
q 2.879309562681314 4.1362e-07 au
i 9.8651551277012 1.5128e-05 deg
node 9.468265491064447 3.5589e-05 deg
peri 318.0969990703366 9.6816e-05 deg
M 359.5333116415166 8.9944e-05 deg
tp 2458603.073172883710
(2019-Apr-29.57317288)
0.0004959 TDB
period 1984.926817429364
5.43
4.7664e-05
1.305e-07
d
yr
n .1813668881083627 4.3551e-09 deg/d
Q 3.302667328560756 5.2871e-08 au
  Orbit Determination Parameters
   # obs. used (total)      114  
   data-arc span      5853 days (16.02 yr)  
   first obs. used      2003-10-18  
   last obs. used      2019-10-27  
   planetary ephem.      DE431  
   SB-pert. ephem.      SB431-N16  
   condition code      0  
   norm. resid. RMS      .67127  
   source      ORB  
   producer      Otto Matic  
   solution date      2019-Nov-08 14:38:31  

Additional Information
 Earth MOID = 1.87718 au 
 Jupiter MOID = 2.00739 au 
 T_jup = 3.199 
[ show covariance matrix ]

Ephemeris | Orbit Diagram | Orbital Elements | Mission Design | Physical Parameters | Discovery Circumstances ]

Physical Parameter Table
Parameter Symbol Value Units Sigma Reference Notes
absolute magnitude H 16.4   n/a MPO408875  

413762 (2006 DK166)          Discovered 2006-Feb-27 by Spacewatch at Kitt Peak
Reference: Last Updated: 2014-11-10
Ephemeris | Orbit Diagram | Orbital Elements | Mission Design | Physical Parameters | Discovery Circumstances ]
ABOUT SSD CREDITS/AWARDS PRIVACY/COPYRIGHT GLOSSARY LINKS
FirstGov
(server date/time)  
NASA Home Page
Site Manager:   Ryan S. Park
Webmaster  Alan B. Chamberlin